YO8KGT-13 Weather Reports


Display with metric or nautical units.
time (UTC)temp
F
wind
direction
speed
MPH
gust
MPH
rain 1hr
in
rain 24hr
in
rain mn
in
humidity
%
barometer
mb
20260507025932 51 225 0.0 1.0 0.00 0.00 0.00 70 944.0
20260507024429 51 225 0.0 0.0 0.00 0.00 0.00 69 944.0
20260507023926 51 225 0.0 0.0 0.00 0.00 0.00 69 944.0
20260507022432 52 225 0.0 0.0 0.00 0.00 0.00 69 944.0
20260507021928 52 225 0.0 0.0 0.00 0.00 0.00 68 944.0
20260507020930 52 225 0.0 0.0 0.00 0.00 0.00 68 944.0
20260507020429 52 225 0.0 1.0 0.00 0.00 0.00 67 944.0
20260507014939 53 225 0.0 3.0 0.00 0.00 0.00 67 944.0
20260507014431 53 225 0.0 3.0 0.00 0.00 0.00 67 944.0
20260507013927 53 225 1.0 3.0 0.00 0.00 0.00 67 944.0
20260507013427 53 225 2.0 3.0 0.00 0.00 0.00 66 944.0
20260507012945 53 225 1.0 3.0 0.00 0.00 0.00 66 944.0
20260507012427 53 225 3.0 4.0 0.00 0.00 0.00 66 943.0
20260507011927 54 225 2.0 5.0 0.00 0.00 0.00 66 944.0
20260507011427 54 225 3.0 5.0 0.00 0.00 0.00 65 943.0
20260507005927 54 202 4.0 6.0 0.00 0.00 0.00 65 943.0
20260507005428 54 248 4.0 6.0 0.00 0.00 0.00 64 943.0
20260507004434 54 248 4.0 4.0 0.00 0.00 0.00 65 943.0
20260507002926 54 248 2.0 2.0 0.00 0.00 0.00 64 943.0
20260507002445 54 248 0.0 1.0 0.00 0.00 0.00 63 943.0
20260507001927 55 248 0.0 0.0 0.00 0.00 0.00 63 943.0
20260507000927 55 248 0.0 0.0 0.00 0.00 0.00 62 944.0
20260507000427 55 248 0.0 0.0 0.00 0.00 0.00 62 943.0
20260506235430 55 248 0.0 2.0 0.00 0.00 0.00 62 943.0
20260506234927 55 248 0.0 2.0 0.00 0.00 0.00 61 943.0
20260506234428 56 248 2.0 2.0 0.00 0.00 0.00 61 943.0
20260506231942 56 248 2.0 2.0 0.00 0.00 0.00 60 943.0
20260506225943 57 248 0.0 0.0 0.00 0.00 0.00 59 943.0
20260506225427 57 248 0.0 2.0 0.00 0.00 0.00 59 943.0
20260506224426 57 248 0.0 0.0 0.00 0.00 0.00 58 943.0
20260506223426 57 248 0.0 0.0 0.00 0.00 0.00 58 943.0
20260506222926 57 248 0.0 2.0 0.00 0.00 0.00 57 943.0
20260506222430 57 248 0.0 2.0 0.00 0.00 0.00 57 943.0
20260506221927 58 248 0.0 0.0 0.00 0.00 0.00 56 943.0
20260506220930 58 248 0.0 0.0 0.00 0.00 0.00 56 943.0
20260506215936 58 248 0.0 2.0 0.00 0.00 0.00 56 943.0
20260506214925 59 248 2.0 2.0 0.00 0.00 0.00 55 943.0
20260506214427 59 248 0.0 0.0 0.00 0.00 0.00 54 943.0
20260506212931 60 248 0.0 2.0 0.00 0.00 0.00 54 943.0
20260506211926 60 248 1.0 2.0 0.00 0.00 0.00 53 942.0
20260506211431 60 248 2.0 2.0 0.00 0.00 0.00 53 942.0
20260506210928 60 248 0.0 0.0 0.00 0.00 0.00 52 942.0
20260506210426 60 248 0.0 0.0 0.00 0.00 0.00 52 942.0
20260506205433 61 248 0.0 0.0 0.00 0.00 0.00 52 942.0
20260506203438 61 248 0.0 1.0 0.00 0.00 0.00 50 942.0
20260506202927 61 248 0.0 1.0 0.00 0.00 0.00 49 942.0
20260506202427 62 248 1.0 1.0 0.00 0.00 0.00 49 942.0
20260506200926 62 248 0.0 2.0 0.00 0.00 0.00 48 942.0
20260506200446 63 248 0.0 1.0 0.00 0.00 0.00 48 942.0
20260506194929 63 248 4.0 4.0 0.00 0.00 0.00 47 942.0
20260506194427 64 248 0.0 2.0 0.00 0.00 0.00 47 942.0
20260506193446 64 248 1.0 1.0 0.00 0.00 0.00 46 942.0
20260506191426 64 248 2.0 3.0 0.00 0.00 0.00 44 942.0
20260506190929 65 248 2.0 2.0 0.00 0.00 0.00 44 942.0
20260506190425 65 248 2.0 3.0 0.00 0.00 0.00 44 942.0
20260506185926 65 248 0.0 3.0 0.00 0.00 0.00 43 942.0
20260506184937 66 248 0.0 2.0 0.00 0.00 0.00 42 942.0
20260506184427 66 248 1.0 3.0 0.00 0.00 0.00 42 942.0
20260506181927 67 225 2.0 4.0 0.00 0.00 0.00 39 941.0
20260506181425 68 225 1.0 4.0 0.00 0.00 0.00 39 942.0
20260506180926 68 225 4.0 4.0 0.00 0.00 0.00 38 941.0
20260506180427 68 202 1.0 4.0 0.00 0.00 0.00 38 941.0
20260506175926 68 248 3.0 4.0 0.00 0.00 0.00 38 941.0
20260506175426 68 248 2.0 4.0 0.00 0.00 0.00 37 941.0
20260506173926 69 248 4.0 4.0 0.00 0.00 0.00 36 941.0
20260506173426 70 0 0.0 3.0 0.00 0.00 0.00 36 941.0
20260506172943 70 248 0.0 3.0 0.00 0.00 0.00 35 941.0
20260506172439 70 135 3.0 4.0 0.00 0.00 0.00 35 941.0
20260506170426 72 68 0.0 5.0 0.00 0.00 0.00 34 941.0
20260506165426 72 202 0.0 2.0 0.00 0.00 0.00 33 941.0
20260506164926 73 0 0.0 2.0 0.00 0.00 0.00 32 941.0
20260506163930 74 22 0.0 2.0 0.00 0.00 0.00 31 941.0
20260506163428 74 135 2.0 2.0 0.00 0.00 0.00 31 941.0
20260506161926 75 90 0.0 4.0 0.00 0.00 0.00 29 941.0
20260506161425 75 90 2.0 2.0 0.00 0.00 0.00 29 941.0
20260506160927 76 248 2.0 3.0 0.00 0.00 0.00 29 941.0
20260506155427 76 90 2.0 4.0 0.00 0.00 0.00 28 941.0
20260506153426 78 270 2.0 2.0 0.00 0.00 0.00 28 941.0
20260506152926 78 315 1.0 4.0 0.00 0.00 0.00 28 941.0
20260506152427 78 292 0.0 5.0 0.00 0.00 0.00 27 941.0
20260506150927 80 292 2.0 5.0 0.00 0.00 0.00 26 941.0
20260506150425 80 315 0.0 3.0 0.00 0.00 0.00 26 941.0
20260506144429 81 90 0.0 2.0 0.00 0.00 0.00 26 941.0
20260506142926 82 270 0.0 5.0 0.00 0.00 0.00 25 941.0
20260506142426 82 248 1.0 5.0 0.00 0.00 0.00 25 941.0
20260506141928 83 225 3.0 5.0 0.00 0.00 0.00 25 941.0
20260506141435 83 112 4.0 4.0 0.00 0.00 0.00 25 941.0
20260506140926 84 68 2.0 4.0 0.00 0.00 0.00 25 941.0
20260506135925 85 0 0.0 4.0 0.00 0.00 0.00 23 941.0
20260506135445 85 135 0.0 3.0 0.00 0.00 0.00 23 941.0
20260506134926 85 0 1.0 3.0 0.00 0.00 0.00 23 941.0
20260506134426 86 338 0.0 4.0 0.00 0.00 0.00 23 941.0
20260506131431 88 22 0.0 5.0 0.00 0.00 0.00 22 941.0
20260506130936 88 248 2.0 5.0 0.00 0.00 0.00 22 941.0
20260506130427 88 0 0.0 3.0 0.00 0.00 0.00 22 941.0
20260506124428 89 248 2.0 3.0 0.00 0.00 0.00 21 941.0
20260506123927 90 0 3.0 7.0 0.00 0.00 0.00 21 941.0
20260506123427 90 248 2.0 7.0 0.00 0.00 0.00 21 941.0
20260506122425 90 270 0.0 5.0 0.00 0.00 0.00 21 941.0
20260506121425 90 90 2.0 3.0 0.00 0.00 0.00 21 941.0
20260506120926 91 90 3.0 3.0 0.00 0.00 0.00 21 942.0
20260506120433 91 270 0.0 3.0 0.00 0.00 0.00 21 941.0
20260506115926 91 270 0.0 10.0 0.00 0.00 0.00 21 942.0
20260506114943 91 292 1.0 10.0 0.00 0.00 0.00 21 942.0
20260506114439 91 270 1.0 6.0 0.00 0.00 0.00 21 942.0
20260506113925 91 90 3.0 6.0 0.00 0.00 0.00 21 942.0
20260506113426 91 68 2.0 4.0 0.00 0.00 0.00 22 942.0
20260506112425 92 90 1.0 2.0 0.00 0.00 0.00 22 942.0
20260506111425 92 0 0.0 2.0 0.00 0.00 0.00 22 942.0
20260506110925 92 338 0.0 2.0 0.00 0.00 0.00 22 942.0
20260506110432 92 338 0.0 2.0 0.00 0.00 0.00 22 942.0
20260506105933 92 22 2.0 2.0 0.00 0.00 0.00 23 942.0
20260506104010 92 45 3.0 4.0 0.00 0.00 0.00 24 942.0
20260506103430 92 270 3.0 4.0 0.00 0.00 0.00 24 942.0
20260506100924 90 90 0.0 3.0 0.00 0.00 0.00 25 943.0
20260506095937 89 338 2.0 4.0 0.00 0.00 0.00 25 943.0
20260506095500 89 338 0.0 3.0 0.00 0.00 0.00 26 943.0
20260506094929 88 0 0.0 3.0 0.00 0.00 0.00 26 943.0
20260506094425 88 292 0.0 3.0 0.00 0.00 0.00 26 943.0
20260506093428 87 158 0.0 3.0 0.00 0.00 0.00 27 943.0
20260506092927 86 0 0.0 3.0 0.00 0.00 0.00 28 943.0
20260506092425 85 270 2.0 3.0 0.00 0.00 0.00 29 943.0
20260506090950 84 270 1.0 3.0 0.00 0.00 0.00 30 943.0
20260506090425 83 248 3.0 3.0 0.00 0.00 0.00 30 943.0
20260506085926 83 315 0.0 2.0 0.00 0.00 0.00 30 943.0
20260506083926 82 338 0.0 2.0 0.00 0.00 0.00 32 943.0
20260506083436 82 315 0.0 2.0 0.00 0.00 0.00 32 943.0
20260506082925 81 315 0.0 2.0 0.00 0.00 0.00 33 943.0
20260506082439 81 338 0.0 2.0 0.00 0.00 0.00 34 943.0
20260506081925 80 270 0.0 2.0 0.00 0.00 0.00 35 943.0
20260506080925 80 0 0.0 0.0 0.00 0.00 0.00 37 943.0
20260506080426 80 22 0.0 0.0 0.00 0.00 0.00 37 943.0
20260506061926 66 338 0.0 0.0 0.00 0.00 0.00 54 944.0
20260506061425 64 0 0.0 0.0 0.00 0.00 0.00 55 943.0
20260506050445 56 248 0.0 1.0 0.00 0.00 0.00 61 943.0
20260506044925 55 248 0.0 0.0 0.00 0.00 0.00 61 943.0
20260506043427 55 248 0.0 0.0 0.00 0.00 0.00 61 943.0
20260506041430 55 248 0.0 0.0 0.00 0.00 0.00 61 943.0
20260506040924 54 248 0.0 0.0 0.00 0.00 0.00 61 943.0
20260506035933 53 248 0.0 0.0 0.00 0.00 0.00 61 943.0
20260506035426 53 248 0.0 0.0 0.00 0.00 0.00 61 943.0
20260506034425 52 248 0.0 0.0 0.00 0.00 0.00 62 943.0
20260506031430 50 248 0.0 0.0 0.00 0.00 0.00 62 943.0
20260506030931 50 248 0.0 0.0 0.00 0.00 0.00 62 943.0
20260506030425 50 248 0.0 0.0 0.00 0.00 0.00 62 943.0